Showing default

ICEYE-X42, 62698

Orbit data source: Space-Track

ICEYE-X42, 62698 is an Emirian payload satellite in SSO that was launched on Tue, 14 Jan 2025 UTC via an FALCON 9 launch vehicle from the Air Force Western Test Range (AFWTR). Payload-class satellites include a variety of spacecraft equipped with specific instruments for various scientific and technological missions. These include communications satellites like Starlink; space stations such as the ISS; scientific satellites like the Hubble; Earth observation satellites from companies like Planet Labs, Umbra, and HawkEye 360; GPS; miniature CubeSats for education and research; and military/defense satellites.

Loading next visibility...
Identifier
62698, 2025-009CT
Orbit
SSO
Country
Flag of AEAE / UAE
Related business
None
Manufacturer
ICEYE
Mission
Operational Commercial Radar Imaging
Bus & Motor
ICEYE, Unknown motor
Mass
80 kg wet, 80 kg dry
Launch date (UTC)
2025-01-14 (1 year ago)
Launch vehicle
FALCON 9
Launch site
Air Force Western Test Range (AFWTR)
Object type
Payload
Rocket body
Debris
Shape & HBR
Box + 1 Pan, 0.6 m
Radar Cross Section
0.776 m², Medium (>0.1 m² and < 1m²)

Expand to show TLE details & history
Last TLE update: 15 hours ago

TLE from 15 hours ago
0 ICEYE-X42
1 62698U 25009CT  26035.20209728  .00002831  00000-0  28573-3 0  9995
2 62698  97.7372 115.9065 0001377 103.9025 256.2347 14.91866845 57466
Epoch: 2026-02-04T04:51Z
TLE epoch observation values (Epoch: 2026-02-04T04:51:01.204Z)
Latitude
-0.00007°
Longitude
-91.22057°
Altitude
595.386 km
Speed
7.562 km/s
True Right ascension
07h 43m 37s
True Declination
0° 00' 00"
Sunlit
Object was in full shadow at epoch
Visualization orbit readout
Latitude
Unknown
Longitude
Unknown
Altitude
Unknown
Speed
Unknown
Apparent Right ascension
Unknown
Apparent Declination
Unknown
Sunlit
N/A
Visualization observer readout
Local Sidereal Time
21:39:42
Azimuth
Unknown
Elevation
Unknown
Doppler factor
Unknown
Orbital elements
Apogee altitude
590.092 km
Perigee altitude
588.173 km
Semi-major axis
6,967.27 km
Eccentricity
0.00014
Inclination
97.7372°
RAAN
115.9065°
Arg. of periapsis
103.9025°
True anomaly
256.21937°
Mean anomaly
256.2347°
Eccentric anomaly
256.22704°
Mean motion
3.73207 °/min
Orbital period
96.46 mins
BSTAR
0.00028573
Loading maneuver chart data...
Computing Atmospheric mass density...
Loading historical data...
Loading historical data...
Loading historical data...
Loading historical data...
Loading historical data...
Loading historical data...
Loading historical data...

Documentation

Showing up to 5 results
|